This is the latest recevied weather packets stored in our database for station/object DN9EM-2. If no packets are shown the sender has not sent any weather packets the latest 10 day(s).
| Time | Temp. | Humidity | Pressure | Rain* | Wind** | Luminosity | Snow |
|---|---|---|---|---|---|---|---|
| 1777603264 | 6.11° C | 80% | 1030.3 hPa | 0 mm | - | - | - |
| 1777602661 | 6.67° C | 79% | 1030.4 hPa | 0 mm | - | - | - |
| 1777602058 | 6.67° C | 79% | 1030.3 hPa | 0 mm | - | - | - |
| 1777601456 | 6.67° C | 78% | 1030.3 hPa | 0 mm | - | - | - |
| 1777600853 | 6.67° C | 78% | 1030.3 hPa | 0 mm | - | - | - |
| 1777600250 | 7.22° C | 78% | 1030.3 hPa | 0 mm | - | - | - |
| 1777599648 | 7.22° C | 78% | 1030.3 hPa | 0 mm | - | - | - |
| 1777599045 | 7.22° C | 77% | 1030.3 hPa | 0 mm | - | - | - |
| 1777598442 | 7.78° C | 76% | 1030.3 hPa | 0 mm | - | - | - |
| 1777597840 | 7.78° C | 75% | 1030.5 hPa | 0 mm | - | - | - |
| 1777597237 | 7.78° C | 75% | 1030.5 hPa | 0 mm | - | - | - |
| 1777596634 | 7.78° C | 75% | 1030.6 hPa | 0 mm | - | - | - |
| 1777596032 | 8.33° C | 74% | 1030.5 hPa | 0 mm | - | - | - |
| 1777595429 | 8.33° C | 74% | 1030.4 hPa | 0 mm | - | - | - |
| 1777594826 | 8.33° C | 74% | 1030.5 hPa | 0 mm | - | - | - |
| 1777594223 | 8.89° C | 72% | 1030.5 hPa | 0 mm | - | - | - |
| 1777593621 | 8.89° C | 73% | 1030.6 hPa | 0 mm | - | - | - |
| 1777593018 | 8.89° C | 73% | 1030.5 hPa | 0 mm | - | - | - |
| 1777592415 | 9.44° C | 72% | 1030.5 hPa | 0 mm | - | - | - |
| 1777591873 | 9.44° C | 71% | 1030.6 hPa | 0 mm | - | - | - |
| 1777591270 | 10° C | 70% | 1030.7 hPa | 0 mm | - | - | - |
| 1777590667 | 10° C | 70% | 1030.7 hPa | 0 mm | - | - | - |
| 1777590064 | 10° C | 70% | 1030.7 hPa | 0 mm | - | - | - |
| 1777589467 | 9.44° C | 70% | 1030.8 hPa | 0 mm | - | - | - |
| 1777588859 | 10° C | 70% | 1030.8 hPa | 0 mm | - | - | - |
* Rain latest hour (hover to see other rain measurements)
** Current wind speed in m/s (hover to see current wind gust speed)